| time (UTC) | temp F | wind direction | speed knots | gust knots | rain 1hr in | rain 24hr in | rain mn in | humidity % | barometer mb |
| 20260901232030 | 68 | 253 | 1.7 | 7.8 | 0.00 | 0.00 | 0.00 | 64 | 998.7 |
| 20260901231559 | 68 | 254 | 0.9 | 5.2 | 0.00 | 0.00 | 0.00 | 63 | 998.7 |
| 20260901231008 | 68 | 200 | 0.0 | 5.2 | 0.00 | 0.00 | 0.00 | 64 | 998.7 |
| 20260901230513 | 68 | 194 | 1.7 | 7.8 | 0.00 | 0.00 | 0.00 | 64 | 998.7 |
| 20260901230053 | 68 | 113 | 3.5 | 7.8 | 0.00 | 0.00 | 0.00 | 64 | 998.8 |
| 20260901225558 | 67 | 262 | 1.7 | 7.0 | 0.00 | 0.00 | 0.00 | 65 | 998.8 |
| 20260901225006 | 67 | 250 | 0.9 | 6.1 | 0.00 | 0.00 | 0.00 | 66 | 998.8 |
| 20260901224541 | 67 | 175 | 1.7 | 6.1 | 0.00 | 0.00 | 0.00 | 67 | 998.9 |
| 20260901224046 | 66 | 305 | 1.7 | 5.2 | 0.00 | 0.00 | 0.00 | 68 | 998.9 |
| 20260901223553 | 66 | 238 | 0.9 | 4.3 | 0.00 | 0.00 | 0.00 | 68 | 999.0 |
| 20260901223029 | 66 | 215 | 0.0 | 4.3 | 0.00 | 0.00 | 0.00 | 67 | 999.1 |
| 20260901222535 | 67 | 325 | 0.9 | 5.2 | 0.00 | 0.00 | 0.00 | 67 | 999.1 |
| 20260901222040 | 67 | 153 | 2.6 | 6.1 | 0.00 | 0.00 | 0.00 | 66 | 999.0 |
| 20260901221525 | 67 | 252 | 0.9 | 6.1 | 0.00 | 0.00 | 0.00 | 66 | 999.0 |
| 20260901221027 | 67 | 190 | 0.9 | 7.8 | 0.00 | 0.00 | 0.00 | 65 | 998.8 |
| 20260901220532 | 67 | 180 | 3.5 | 7.8 | 0.00 | 0.00 | 0.00 | 65 | 998.8 |
| 20260901220101 | 67 | 206 | 1.7 | 5.2 | 0.00 | 0.00 | 0.00 | 66 | 998.8 |
| 20260901215517 | 67 | 165 | 1.7 | 6.1 | 0.00 | 0.00 | 0.00 | 66 | 998.8 |
| 20260901215020 | 67 | 173 | 1.7 | 7.0 | 0.00 | 0.00 | 0.00 | 66 | 998.8 |
| 20260901214551 | 67 | 198 | 2.6 | 5.2 | 0.00 | 0.00 | 0.00 | 66 | 998.8 |
| 20260901214052 | 67 | 123 | 2.6 | 4.3 | 0.00 | 0.00 | 0.00 | 66 | 998.9 |
| 20260901213559 | 67 | 163 | 0.9 | 7.8 | 0.00 | 0.00 | 0.00 | 67 | 998.9 |
| 20260901213029 | 67 | 176 | 2.6 | 6.1 | 0.00 | 0.00 | 0.00 | 68 | 998.9 |
| 20260901212541 | 66 | 355 | 0.9 | 4.3 | 0.00 | 0.00 | 0.00 | 68 | 998.9 |
| 20260901212049 | 66 | 80 | 1.7 | 4.3 | 0.00 | 0.00 | 0.00 | 68 | 999.0 |
| 20260901211503 | 66 | 115 | 0.9 | 2.6 | 0.00 | 0.00 | 0.00 | 67 | 999.0 |
| 20260901211017 | 67 | 69 | 0.9 | 3.5 | 0.00 | 0.00 | 0.00 | 67 | 998.9 |
| 20260901210522 | 67 | 229 | 1.7 | 5.2 | 0.00 | 0.00 | 0.00 | 68 | 999.0 |
| 20260901210107 | 66 | 162 | 0.9 | 3.5 | 0.00 | 0.00 | 0.00 | 68 | 998.9 |
| 20260901205600 | 65 | 215 | 0.9 | 3.5 | 0.00 | 0.00 | 0.00 | 69 | 999.0 |
| 20260901205014 | 65 | 205 | 0.9 | 3.5 | 0.00 | 0.00 | 0.00 | 70 | 999.2 |
| 20260901204533 | 65 | 172 | 0.9 | 3.5 | 0.00 | 0.00 | 0.00 | 70 | 999.1 |
| 20260901204034 | 65 | 254 | 1.7 | 3.5 | 0.00 | 0.00 | 0.00 | 70 | 999.2 |
| 20260901203540 | 65 | 191 | 0.9 | 4.3 | 0.00 | 0.00 | 0.00 | 70 | 999.2 |
| 20260901203029 | 65 | 194 | 1.7 | 4.3 | 0.00 | 0.00 | 0.00 | 70 | 999.3 |
| 20260901202526 | 65 | 265 | 1.7 | 4.3 | 0.00 | 0.00 | 0.00 | 71 | 999.2 |
| 20260901202032 | 65 | 190 | 1.7 | 4.3 | 0.00 | 0.00 | 0.00 | 71 | 999.1 |
| 20260901201556 | 66 | 205 | 0.0 | 2.6 | 0.00 | 0.00 | 0.00 | 70 | 999.3 |
| 20260901201008 | 66 | 191 | 0.9 | 3.5 | 0.00 | 0.00 | 0.00 | 70 | 999.2 |
| 20260901200510 | 66 | 288 | 0.9 | 6.1 | 0.00 | 0.00 | 0.00 | 69 | 999.3 |
| 20260901200057 | 67 | 311 | 0.9 | 6.1 | 0.00 | 0.00 | 0.00 | 69 | 999.2 |
| 20260901195603 | 67 | 171 | 1.7 | 3.5 | 0.00 | 0.00 | 0.00 | 69 | 999.2 |
| 20260901195010 | 67 | 176 | 0.9 | 2.6 | 0.00 | 0.00 | 0.00 | 69 | 999.2 |
| 20260901194546 | 67 | 184 | 0.0 | 2.6 | 0.00 | 0.00 | 0.00 | 68 | 999.3 |
| 20260901194050 | 67 | 169 | 0.9 | 7.0 | 0.00 | 0.00 | 0.00 | 68 | 999.3 |
| 20260901193600 | 67 | 76 | 1.7 | 7.0 | 0.00 | 0.00 | 0.00 | 68 | 999.4 |
| 20260901193035 | 67 | 223 | 2.6 | 5.2 | 0.00 | 0.00 | 0.00 | 69 | 999.4 |
| 20260901192544 | 66 | 166 | 0.9 | 4.3 | 0.00 | 0.00 | 0.00 | 70 | 999.4 |
| 20260901192051 | 66 | 328 | 0.9 | 4.3 | 0.00 | 0.00 | 0.00 | 70 | 999.4 |
| 20260901191525 | 66 | 209 | 1.7 | 3.5 | 0.00 | 0.00 | 0.00 | 70 | 999.6 |
| 20260901191038 | 66 | 158 | 0.9 | 5.2 | 0.00 | 0.00 | 0.00 | 70 | 999.5 |
| 20260901190540 | 66 | 219 | 0.9 | 7.0 | 0.00 | 0.00 | 0.00 | 70 | 999.6 |
| 20260901190110 | 66 | 217 | 0.9 | 4.3 | 0.00 | 0.00 | 0.00 | 70 | 999.7 |
| 20260901185606 | 66 | 207 | 1.7 | 4.3 | 0.00 | 0.00 | 0.00 | 71 | 999.6 |
| 20260901185003 | 66 | 83 | 0.9 | 6.1 | 0.00 | 0.00 | 0.00 | 72 | 999.7 |
| 20260901184546 | 66 | 161 | 3.5 | 6.1 | 0.00 | 0.00 | 0.00 | 71 | 999.7 |
| 20260901184051 | 65 | 26 | 0.9 | 2.6 | 0.00 | 0.00 | 0.00 | 74 | 999.7 |
| 20260901183556 | 64 | 178 | 0.9 | 2.6 | 0.00 | 0.00 | 0.00 | 74 | 999.8 |
| 20260901183035 | 64 | 308 | 0.9 | 3.5 | 0.00 | 0.00 | 0.00 | 74 | 999.9 |
| 20260901182540 | 64 | 188 | 0.9 | 4.3 | 0.00 | 0.00 | 0.00 | 74 | 999.9 |
| 20260901182051 | 64 | 183 | 2.6 | 5.2 | 0.00 | 0.00 | 0.00 | 74 | 999.8 |
| 20260901181526 | 64 | 234 | 0.0 | 7.8 | 0.00 | 0.00 | 0.00 | 75 | 999.8 |
| 20260901181033 | 64 | 282 | 0.9 | 7.8 | 0.00 | 0.00 | 0.00 | 75 | 999.8 |
| 20260901180538 | 64 | 351 | 0.9 | 3.5 | 0.00 | 0.00 | 0.00 | 76 | 999.8 |
| 20260901180008 | 63 | 173 | 0.9 | 2.6 | 0.00 | 0.00 | 0.00 | 76 | 999.8 |
| 20260901175515 | 64 | 50 | 0.9 | 7.0 | 0.00 | 0.00 | 0.00 | 76 | 999.8 |
| 20260901175028 | 63 | 173 | 3.5 | 7.0 | 0.00 | 0.00 | 0.00 | 76 | 999.7 |
| 20260901174614 | 63 | 155 | 0.9 | 7.8 | 0.00 | 0.00 | 0.00 | 77 | 999.6 |
| 20260901174002 | 63 | 170 | 3.5 | 7.8 | 0.00 | 0.00 | 0.00 | 77 | 999.7 |
| 20260901173511 | 63 | 196 | 0.9 | 6.1 | 0.00 | 0.00 | 0.00 | 77 | 999.7 |
| 20260901173046 | 63 | 138 | 0.9 | 6.1 | 0.00 | 0.00 | 0.00 | 77 | 999.7 |
| 20260901172554 | 62 | 89 | 0.9 | 6.1 | 0.00 | 0.00 | 0.00 | 78 | 999.7 |
| 20260901172100 | 62 | 120 | 1.7 | 4.3 | 0.00 | 0.00 | 0.00 | 78 | 999.7 |
| 20260901171527 | 62 | 209 | 1.7 | 4.3 | 0.00 | 0.00 | 0.00 | 78 | 999.5 |
| 20260901171030 | 62 | 279 | 1.7 | 6.1 | 0.00 | 0.00 | 0.00 | 79 | 999.6 |
| 20260901170538 | 62 | 259 | 1.7 | 6.1 | 0.00 | 0.00 | 0.00 | 80 | 999.6 |
| 20260901170003 | 61 | 49 | 0.9 | 6.1 | 0.00 | 0.00 | 0.00 | 81 | 999.4 |
| 20260901165517 | 61 | 63 | 0.9 | 6.1 | 0.00 | 0.00 | 0.00 | 81 | 999.5 |
| 20260901165025 | 60 | 192 | 0.9 | 3.5 | 0.00 | 0.00 | 0.00 | 82 | 999.6 |
| 20260901164551 | 60 | 63 | 0.9 | 2.6 | 0.00 | 0.00 | 0.00 | 83 | 999.6 |
| 20260901164101 | 60 | 213 | 0.9 | 2.6 | 0.00 | 0.00 | 0.00 | 83 | 999.5 |
| 20260901163602 | 59 | 123 | 0.0 | 1.7 | 0.00 | 0.00 | 0.00 | 83 | 999.6 |
| 20260901163036 | 59 | 126 | 0.9 | 1.7 | 0.00 | 0.00 | 0.00 | 84 | 999.6 |
| 20260901162545 | 59 | 126 | 0.0 | 1.7 | 0.00 | 0.00 | 0.00 | 84 | 999.8 |
| 20260901162053 | 59 | 128 | 0.0 | 1.7 | 0.00 | 0.00 | 0.00 | 85 | 999.8 |
| 20260901161512 | 59 | 74 | 0.0 | 1.7 | 0.00 | 0.00 | 0.00 | 85 | 999.7 |
| 20260901161026 | 59 | 59 | 0.9 | 1.7 | 0.00 | 0.00 | 0.00 | 86 | 999.7 |
| 20260901160535 | 59 | 59 | 0.0 | 1.7 | 0.00 | 0.00 | 0.00 | 85 | 999.7 |
| 20260901160058 | 59 | 95 | 0.0 | 0.0 | 0.00 | 0.00 | 0.00 | 86 | 999.7 |
| 20260901155506 | 59 | 95 | 0.0 | 0.0 | 0.00 | 0.00 | 0.00 | 86 | 999.7 |
| 20260901155012 | 58 | 94 | 0.0 | 0.0 | 0.00 | 0.00 | 0.00 | 86 | 999.8 |
| 20260901154548 | 58 | 94 | 0.0 | 0.0 | 0.00 | 0.00 | 0.00 | 86 | 999.8 |
| 20260901154052 | 58 | 94 | 0.0 | 0.0 | 0.00 | 0.00 | 0.00 | 86 | 999.8 |
| 20260901153558 | 58 | 94 | 0.0 | 0.0 | 0.00 | 0.00 | 0.00 | 86 | 999.7 |
| 20260901153035 | 58 | 94 | 0.0 | 0.0 | 0.00 | 0.00 | 0.00 | 86 | 999.9 |
| 20260901152530 | 58 | 94 | 0.0 | 0.0 | 0.00 | 0.00 | 0.00 | 85 | 999.8 |
| 20260901152036 | 58 | 94 | 0.0 | 0.0 | 0.00 | 0.00 | 0.00 | 85 | 999.7 |
| 20260901151503 | 58 | 94 | 0.0 | 0.0 | 0.00 | 0.00 | 0.00 | 85 | 999.7 |
| 20260901151004 | 58 | 94 | 0.0 | 0.0 | 0.00 | 0.00 | 0.00 | 85 | 999.7 |
| 20260901150511 | 58 | 94 | 0.0 | 0.0 | 0.00 | 0.00 | 0.00 | 85 | 999.7 |
| 20260901150034 | 58 | 94 | 0.0 | 0.0 | 0.00 | 0.00 | 0.00 | 85 | 999.6 |
| 20260901145540 | 58 | 94 | 0.0 | 0.0 | 0.00 | 0.00 | 0.00 | 85 | 999.6 |
| 20260901145039 | 58 | 94 | 0.0 | 0.0 | 0.00 | 0.00 | 0.00 | 85 | 999.5 |
| 20260901144510 | 58 | 94 | 0.0 | 0.0 | 0.00 | 0.00 | 0.00 | 85 | 999.5 |
| 20260901144026 | 58 | 94 | 0.0 | 0.0 | 0.00 | 0.00 | 0.00 | 85 | 999.5 |
| 20260901143528 | 58 | 94 | 0.0 | 0.0 | 0.00 | 0.00 | 0.00 | 85 | 999.5 |
| 20260901143120 | 57 | 94 | 0.0 | 0.0 | 0.00 | 0.00 | 0.00 | 84 | 999.5 |
| 20260901142602 | 57 | 94 | 0.0 | 0.0 | 0.00 | 0.00 | 0.00 | 84 | 999.4 |
| 20260901142005 | 57 | 94 | 0.0 | 0.0 | 0.00 | 0.00 | 0.00 | 84 | 999.3 |
| 20260901141538 | 57 | 94 | 0.0 | 0.0 | 0.00 | 0.00 | 0.00 | 84 | 999.4 |
| 20260901141045 | 57 | 94 | 0.0 | 0.0 | 0.00 | 0.00 | 0.00 | 84 | 999.3 |
| 20260901140550 | 57 | 94 | 0.0 | 0.0 | 0.00 | 0.00 | 0.00 | 84 | 999.4 |
| 20260901140018 | 57 | 94 | 0.0 | 0.0 | 0.00 | 0.00 | 0.00 | 84 | 999.3 |
| 20260901135516 | 57 | 94 | 0.0 | 0.0 | 0.00 | 0.00 | 0.00 | 84 | 999.2 |
| 20260901135031 | 57 | 94 | 0.0 | 0.0 | 0.00 | 0.00 | 0.00 | 84 | 999.1 |
| 20260901134558 | 57 | 94 | 0.0 | 0.0 | 0.00 | 0.00 | 0.00 | 85 | 999.2 |
| 20260901134104 | 57 | 94 | 0.0 | 0.0 | 0.00 | 0.00 | 0.00 | 84 | 999.2 |
| 20260901133510 | 57 | 94 | 0.0 | 0.0 | 0.00 | 0.00 | 0.00 | 84 | 999.2 |
| 20260901133103 | 57 | 94 | 0.0 | 0.0 | 0.00 | 0.00 | 0.00 | 85 | 999.1 |
| 20260901132552 | 57 | 94 | 0.0 | 0.0 | 0.00 | 0.00 | 0.00 | 85 | 999.2 |
| 20260901132102 | 57 | 94 | 0.0 | 0.0 | 0.00 | 0.00 | 0.00 | 85 | 999.2 |
| 20260901131541 | 57 | 94 | 0.0 | 0.0 | 0.00 | 0.00 | 0.00 | 85 | 999.1 |
| 20260901131043 | 57 | 93 | 0.0 | 0.0 | 0.00 | 0.00 | 0.00 | 85 | 999.1 |
| 20260901130552 | 57 | 93 | 0.0 | 0.0 | 0.00 | 0.00 | 0.00 | 85 | 999.1 |
| 20260901130032 | 57 | 93 | 0.0 | 0.0 | 0.00 | 0.00 | 0.00 | 85 | 999.0 |
| 20260901125539 | 57 | 93 | 0.0 | 0.0 | 0.00 | 0.00 | 0.00 | 85 | 999.0 |
| 20260901125043 | 57 | 93 | 0.0 | 0.0 | 0.00 | 0.00 | 0.00 | 85 | 998.9 |
| 20260901124506 | 57 | 93 | 0.0 | 0.0 | 0.00 | 0.00 | 0.00 | 85 | 998.9 |
| 20260901124012 | 56 | 93 | 0.0 | 0.0 | 0.00 | 0.00 | 0.00 | 85 | 998.8 |
| 20260901123519 | 56 | 93 | 0.0 | 0.0 | 0.00 | 0.00 | 0.00 | 85 | 998.8 |
| 20260901123052 | 56 | 93 | 0.0 | 0.0 | 0.00 | 0.00 | 0.00 | 85 | 998.8 |
| 20260901122559 | 56 | 93 | 0.0 | 0.0 | 0.00 | 0.00 | 0.00 | 85 | 999.0 |
| 20260901122102 | 56 | 93 | 0.0 | 0.0 | 0.00 | 0.00 | 0.00 | 85 | 999.0 |
| 20260901121532 | 56 | 93 | 0.0 | 0.0 | 0.00 | 0.00 | 0.00 | 85 | 999.0 |
| 20260901121040 | 56 | 93 | 0.0 | 0.0 | 0.00 | 0.00 | 0.00 | 85 | 999.0 |
| 20260901120546 | 56 | 93 | 0.0 | 0.0 | 0.00 | 0.00 | 0.00 | 85 | 998.7 |
| 20260901120010 | 56 | 93 | 0.0 | 0.0 | 0.00 | 0.00 | 0.00 | 85 | 998.7 |
| 20260901115524 | 56 | 93 | 0.0 | 0.0 | 0.00 | 0.00 | 0.00 | 85 | 998.7 |
| 20260901115029 | 56 | 93 | 0.0 | 0.0 | 0.00 | 0.00 | 0.00 | 85 | 998.7 |
| 20260901114601 | 56 | 93 | 0.0 | 0.0 | 0.00 | 0.00 | 0.00 | 84 | 998.7 |
| 20260901114009 | 56 | 93 | 0.0 | 0.0 | 0.00 | 0.00 | 0.00 | 84 | 998.7 |
| 20260901113517 | 56 | 93 | 0.0 | 0.0 | 0.00 | 0.00 | 0.00 | 84 | 998.6 |
| 20260901113032 | 56 | 93 | 0.0 | 0.0 | 0.00 | 0.00 | 0.00 | 83 | 998.7 |
| 20260901112535 | 56 | 93 | 0.0 | 0.0 | 0.00 | 0.00 | 0.00 | 83 | 998.6 |
| 20260901112042 | 56 | 93 | 0.0 | 0.0 | 0.00 | 0.00 | 0.00 | 83 | 998.6 |
| 20260901111510 | 56 | 93 | 0.0 | 0.0 | 0.00 | 0.00 | 0.00 | 83 | 998.6 |
| 20260901111018 | 56 | 46 | 0.0 | 0.0 | 0.00 | 0.00 | 0.00 | 82 | 998.5 |
| 20260901110525 | 56 | 46 | 0.0 | 0.0 | 0.00 | 0.00 | 0.00 | 82 | 998.5 |
| 20260901110057 | 57 | 46 | 0.0 | 0.0 | 0.00 | 0.00 | 0.00 | 82 | 998.4 |
| 20260901105551 | 57 | 46 | 0.0 | 0.0 | 0.00 | 0.00 | 0.00 | 82 | 998.3 |
| 20260901105057 | 57 | 46 | 0.0 | 0.9 | 0.00 | 0.00 | 0.00 | 82 | 998.3 |
| 20260901104544 | 57 | 46 | 0.0 | 1.7 | 0.00 | 0.00 | 0.00 | 82 | 998.3 |
| 20260901104042 | 57 | 46 | 0.0 | 0.9 | 0.00 | 0.00 | 0.00 | 82 | 998.3 |
| 20260901103543 | 57 | 46 | 0.0 | 0.9 | 0.00 | 0.00 | 0.00 | 82 | 998.3 |
| 20260901103022 | 57 | 46 | 0.0 | 3.5 | 0.00 | 0.00 | 0.00 | 83 | 998.3 |
| 20260901102517 | 57 | 46 | 0.0 | 1.7 | 0.00 | 0.00 | 0.00 | 82 | 998.2 |
| 20260901102029 | 57 | 42 | 0.0 | 1.7 | 0.00 | 0.00 | 0.00 | 82 | 998.2 |
| 20260901101559 | 57 | 42 | 0.9 | 2.6 | 0.00 | 0.00 | 0.00 | 82 | 998.2 |
| 20260901101003 | 58 | 44 | 0.9 | 2.6 | 0.00 | 0.00 | 0.00 | 82 | 998.3 |
| 20260901100509 | 58 | 32 | 0.9 | 2.6 | 0.00 | 0.00 | 0.00 | 82 | 998.2 |
| 20260901100042 | 58 | 42 | 0.9 | 2.6 | 0.00 | 0.00 | 0.00 | 82 | 998.2 |
| 20260901095549 | 58 | 326 | 0.9 | 4.3 | 0.00 | 0.00 | 0.00 | 82 | 998.3 |
| 20260901095057 | 58 | 240 | 0.0 | 6.1 | 0.00 | 0.00 | 0.00 | 81 | 998.3 |
| 20260901094539 | 58 | 163 | 1.7 | 6.1 | 0.00 | 0.00 | 0.00 | 81 | 998.3 |
| 20260901094043 | 58 | 221 | 0.0 | 1.7 | 0.00 | 0.00 | 0.00 | 80 | 998.4 |
| 20260901093551 | 58 | 220 | 0.0 | 1.7 | 0.00 | 0.00 | 0.00 | 81 | 998.4 |
| 20260901093028 | 58 | 229 | 0.0 | 1.7 | 0.00 | 0.00 | 0.00 | 80 | 998.3 |
| 20260901092533 | 58 | 229 | 0.0 | 1.7 | 0.00 | 0.00 | 0.00 | 80 | 998.2 |
| 20260901092042 | 59 | 213 | 0.0 | 0.0 | 0.00 | 0.00 | 0.00 | 80 | 998.0 |
| 20260901091506 | 59 | 213 | 0.0 | 1.7 | 0.00 | 0.00 | 0.00 | 80 | 997.8 |
| 20260901091007 | 59 | 213 | 0.0 | 3.5 | 0.00 | 0.00 | 0.00 | 80 | 997.8 |
| 20260901090513 | 59 | 213 | 0.9 | 3.5 | 0.00 | 0.00 | 0.00 | 80 | 997.6 |
| 20260901090050 | 59 | 235 | 0.9 | 4.3 | 0.00 | 0.00 | 0.00 | 80 | 997.6 |
| 20260901085549 | 59 | 186 | 0.0 | 4.3 | 0.00 | 0.00 | 0.00 | 80 | 997.7 |
| 20260901085057 | 59 | 240 | 0.9 | 3.5 | 0.00 | 0.00 | 0.00 | 79 | 997.7 |
| 20260901084533 | 59 | 294 | 0.9 | 3.5 | 0.00 | 0.00 | 0.00 | 79 | 997.8 |
| 20260901084038 | 59 | 306 | 0.9 | 3.5 | 0.00 | 0.00 | 0.00 | 79 | 997.9 |
| 20260901083540 | 59 | 318 | 0.9 | 3.5 | 0.00 | 0.00 | 0.00 | 79 | 997.8 |
| 20260901083006 | 60 | 317 | 0.9 | 3.5 | 0.00 | 0.00 | 0.00 | 79 | 997.7 |
| 20260901082511 | 60 | 163 | 0.0 | 4.3 | 0.00 | 0.00 | 0.00 | 79 | 997.7 |
| 20260901082016 | 60 | 163 | 1.7 | 4.3 | 0.00 | 0.00 | 0.00 | 79 | 997.7 |
| 20260901081551 | 60 | 202 | 0.0 | 4.3 | 0.00 | 0.00 | 0.00 | 78 | 997.7 |
| 20260901081102 | 60 | 200 | 0.9 | 4.3 | 0.00 | 0.00 | 0.00 | 78 | 997.8 |
| 20260901080559 | 60 | 75 | 0.0 | 2.6 | 0.00 | 0.00 | 0.00 | 78 | 997.8 |
| 20260901080035 | 60 | 60 | 0.9 | 2.6 | 0.00 | 0.00 | 0.00 | 78 | 997.7 |
| 20260901075539 | 61 | 90 | 0.9 | 3.5 | 0.00 | 0.00 | 0.00 | 77 | 997.6 |
| 20260901075045 | 61 | 90 | 0.9 | 4.3 | 0.00 | 0.00 | 0.00 | 77 | 997.5 |
| 20260901074503 | 61 | 76 | 1.7 | 4.3 | 0.00 | 0.00 | 0.00 | 77 | 997.4 |
| 20260901074009 | 61 | 142 | 0.0 | 4.3 | 0.00 | 0.00 | 0.00 | 76 | 997.4 |
| 20260901073515 | 62 | 198 | 0.0 | 2.6 | 0.00 | 0.00 | 0.00 | 75 | 997.3 |
| 20260901073043 | 62 | 171 | 0.9 | 2.6 | 0.00 | 0.00 | 0.00 | 75 | 997.4 |
| 20260901072549 | 62 | 194 | 0.0 | 2.6 | 0.00 | 0.00 | 0.00 | 75 | 997.3 |
| 20260901072055 | 62 | 194 | 0.9 | 2.6 | 0.00 | 0.00 | 0.00 | 74 | 997.2 |
| 20260901071526 | 63 | 219 | 0.0 | 0.0 | 0.00 | 0.00 | 0.00 | 74 | 997.2 |
| 20260901071030 | 63 | 218 | 0.0 | 0.0 | 0.00 | 0.00 | 0.00 | 74 | 997.1 |
| 20260901070536 | 63 | 218 | 0.0 | 0.0 | 0.00 | 0.00 | 0.00 | 74 | 997.0 |
| 20260901070009 | 63 | 218 | 0.0 | 0.0 | 0.00 | 0.00 | 0.00 | 74 | 996.9 |
| 20260901065513 | 63 | 218 | 0.0 | 0.0 | 0.00 | 0.00 | 0.00 | 73 | 996.8 |
| 20260901065020 | 64 | 222 | 0.0 | 0.0 | 0.00 | 0.00 | 0.00 | 73 | 996.8 |
| 20260901064548 | 64 | 222 | 0.0 | 0.0 | 0.00 | 0.00 | 0.00 | 73 | 996.7 |
| 20260901064052 | 64 | 236 | 0.0 | 0.0 | 0.00 | 0.00 | 0.00 | 72 | 996.8 |
| 20260901063555 | 64 | 236 | 0.0 | 0.0 | 0.00 | 0.00 | 0.00 | 72 | 996.8 |
| 20260901063009 | 65 | 236 | 0.0 | 0.0 | 0.00 | 0.00 | 0.00 | 72 | 996.6 |
| 20260901062524 | 65 | 236 | 0.0 | 0.9 | 0.00 | 0.00 | 0.00 | 71 | 996.6 |
| 20260901062027 | 65 | 236 | 0.0 | 1.7 | 0.00 | 0.00 | 0.00 | 71 | 996.6 |
| 20260901061600 | 65 | 236 | 0.0 | 1.7 | 0.00 | 0.00 | 0.00 | 71 | 996.6 |
| 20260901061105 | 65 | 236 | 0.9 | 2.6 | 0.00 | 0.00 | 0.00 | 70 | 996.5 |
| 20260901060602 | 66 | 236 | 0.9 | 2.6 | 0.00 | 0.00 | 0.00 | 70 | 996.4 |
| 20260901060033 | 66 | 236 | 0.0 | 0.0 | 0.00 | 0.00 | 0.00 | 69 | 996.4 |
| 20260901055541 | 66 | 236 | 0.0 | 0.0 | 0.00 | 0.00 | 0.00 | 69 | 996.3 |
| 20260901055047 | 66 | 236 | 0.0 | 0.0 | 0.00 | 0.00 | 0.00 | 69 | 996.3 |
| 20260901054521 | 67 | 236 | 0.0 | 0.0 | 0.00 | 0.00 | 0.00 | 69 | 996.1 |
| 20260901054028 | 67 | 236 | 0.0 | 0.0 | 0.00 | 0.00 | 0.00 | 68 | 996.1 |
| 20260901053538 | 67 | 236 | 0.0 | 0.0 | 0.00 | 0.00 | 0.00 | 67 | 996.0 |
| 20260901053004 | 67 | 236 | 0.0 | 0.0 | 0.00 | 0.00 | 0.00 | 67 | 996.1 |
| 20260901052517 | 68 | 236 | 0.0 | 0.0 | 0.00 | 0.00 | 0.00 | 67 | 996.0 |
| 20260901052030 | 68 | 236 | 0.0 | 0.0 | 0.00 | 0.00 | 0.00 | 67 | 996.0 |
| 20260901051553 | 68 | 236 | 0.0 | 0.0 | 0.00 | 0.00 | 0.00 | 66 | 995.9 |
| 20260901051101 | 68 | 236 | 0.0 | 0.0 | 0.00 | 0.00 | 0.00 | 66 | 995.9 |
| 20260901050519 | 68 | 236 | 0.0 | 0.0 | 0.00 | 0.00 | 0.00 | 66 | 995.9 |
| 20260901050051 | 69 | 236 | 0.0 | 0.0 | 0.00 | 0.00 | 0.00 | 65 | 995.9 |
| 20260901045549 | 69 | 236 | 0.0 | 0.0 | 0.00 | 0.00 | 0.00 | 64 | 995.9 |
| 20260901045058 | 69 | 236 | 0.0 | 0.0 | 0.00 | 0.00 | 0.00 | 64 | 995.9 |
| 20260901044531 | 69 | 236 | 0.0 | 0.0 | 0.00 | 0.00 | 0.00 | 63 | 995.9 |
| 20260901044027 | 70 | 236 | 0.0 | 2.6 | 0.00 | 0.00 | 0.00 | 63 | 995.8 |
| 20260901043507 | 70 | 236 | 0.9 | 2.6 | 0.00 | 0.00 | 0.00 | 63 | 995.8 |
| 20260901043105 | 70 | 236 | 0.9 | 1.7 | 0.00 | 0.00 | 0.00 | 62 | 995.8 |
| 20260901042553 | 70 | 236 | 0.0 | 0.0 | 0.00 | 0.00 | 0.00 | 62 | 995.8 |
| 20260901042055 | 71 | 236 | 0.0 | 0.0 | 0.00 | 0.00 | 0.00 | 61 | 995.6 |
| 20260901041529 | 71 | 236 | 0.0 | 2.6 | 0.00 | 0.00 | 0.00 | 61 | 995.6 |
| 20260901041035 | 71 | 236 | 0.0 | 3.5 | 0.00 | 0.00 | 0.00 | 60 | 995.5 |
| 20260901040543 | 71 | 236 | 0.0 | 3.5 | 0.00 | 0.00 | 0.00 | 59 | 995.5 |
| 20260901040021 | 71 | 226 | 0.0 | 2.6 | 0.00 | 0.00 | 0.00 | 58 | 995.4 |
| 20260901035527 | 72 | 207 | 0.9 | 2.6 | 0.00 | 0.00 | 0.00 | 58 | 995.4 |
| 20260901035034 | 72 | 209 | 0.9 | 2.6 | 0.00 | 0.00 | 0.00 | 58 | 995.3 |
| 20260901034501 | 72 | 244 | 1.7 | 3.5 | 0.00 | 0.00 | 0.00 | 57 | 995.3 |
| 20260901034017 | 72 | 244 | 0.9 | 3.5 | 0.00 | 0.00 | 0.00 | 56 | 995.2 |
| 20260901033525 | 73 | 209 | 1.7 | 3.5 | 0.00 | 0.00 | 0.00 | 56 | 995.1 |
| 20260901033112 | 73 | 5 | 0.0 | 5.2 | 0.00 | 0.00 | 0.00 | 55 | 995.0 |
| 20260901032506 | 73 | 314 | 1.7 | 5.2 | 0.00 | 0.00 | 0.00 | 54 | 994.9 |
| 20260901032010 | 74 | 291 | 1.7 | 4.3 | 0.00 | 0.00 | 0.00 | 54 | 994.8 |
| 20260901031607 | 74 | 302 | 0.9 | 2.6 | 0.00 | 0.00 | 0.00 | 54 | 994.6 |
| 20260901031059 | 74 | 282 | 0.0 | 1.7 | 0.00 | 0.00 | 0.00 | 53 | 994.4 |
| 20260901030505 | 74 | 194 | 0.0 | 0.0 | 0.00 | 0.00 | 0.00 | 52 | 994.2 |
| 20260901030045 | 75 | 194 | 0.0 | 0.9 | 0.00 | 0.00 | 0.00 | 52 | 994.2 |
| 20260901025547 | 75 | 194 | 0.0 | 2.6 | 0.00 | 0.00 | 0.00 | 51 | 994.3 |
| 20260901025053 | 75 | 194 | 0.9 | 2.6 | 0.00 | 0.00 | 0.00 | 51 | 994.3 |
| 20260901024508 | 76 | 206 | 0.9 | 2.6 | 0.00 | 0.00 | 0.00 | 50 | 994.3 |
| 20260901024015 | 76 | 206 | 0.9 | 2.6 | 0.00 | 0.00 | 0.00 | 50 | 994.3 |
| 20260901023529 | 76 | 206 | 0.9 | 2.6 | 0.00 | 0.00 | 0.00 | 49 | 994.4 |
| 20260901023108 | 76 | 206 | 0.0 | 2.6 | 0.00 | 0.00 | 0.00 | 49 | 994.4 |
| 20260901022505 | 76 | 205 | 0.9 | 2.6 | 0.00 | 0.00 | 0.00 | 49 | 994.4 |
| 20260901022010 | 77 | 205 | 0.9 | 2.6 | 0.00 | 0.00 | 0.00 | 49 | 994.4 |
| 20260901021547 | 77 | 205 | 0.9 | 2.6 | 0.00 | 0.00 | 0.00 | 48 | 994.4 |
| 20260901021056 | 77 | 189 | 0.0 | 2.6 | 0.00 | 0.00 | 0.00 | 48 | 994.4 |
| 20260901020603 | 77 | 189 | 0.9 | 1.7 | 0.00 | 0.00 | 0.00 | 48 | 994.5 |
| 20260901020038 | 78 | 190 | 0.9 | 2.6 | 0.00 | 0.00 | 0.00 | 48 | 994.6 |
| 20260901015543 | 78 | 190 | 0.9 | 2.6 | 0.00 | 0.00 | 0.00 | 47 | 994.6 |
| 20260901015048 | 78 | 184 | 0.9 | 2.6 | 0.00 | 0.00 | 0.00 | 47 | 994.5 |
| 20260901014523 | 79 | 184 | 0.9 | 2.6 | 0.00 | 0.00 | 0.00 | 46 | 994.5 |
| 20260901014031 | 79 | 196 | 0.9 | 2.6 | 0.00 | 0.00 | 0.00 | 47 | 994.5 |
| 20260901013537 | 79 | 179 | 0.9 | 2.6 | 0.00 | 0.00 | 0.00 | 47 | 994.5 |
| 20260901013007 | 80 | 196 | 0.0 | 3.5 | 0.00 | 0.00 | 0.00 | 47 | 994.5 |
| 20260901012519 | 80 | 181 | 0.0 | 3.5 | 0.00 | 0.00 | 0.00 | 45 | 994.5 |
| 20260901012024 | 80 | 162 | 0.0 | 3.5 | 0.00 | 0.00 | 0.00 | 45 | 994.5 |
| 20260901011555 | 80 | 186 | 0.0 | 2.6 | 0.00 | 0.00 | 0.00 | 45 | 994.5 |
| 20260901011101 | 80 | 195 | 0.0 | 1.7 | 0.00 | 0.00 | 0.00 | 45 | 994.6 |
| 20260901010505 | 80 | 195 | 0.0 | 3.5 | 0.00 | 0.00 | 0.00 | 47 | 994.5 |
| 20260901010031 | 80 | 195 | 0.9 | 3.5 | 0.00 | 0.00 | 0.00 | 45 | 994.6 |
| 20260901005534 | 80 | 188 | 0.0 | 2.6 | 0.00 | 0.00 | 0.00 | 45 | 994.6 |
| 20260901005043 | 80 | 186 | 0.0 | 2.6 | 0.00 | 0.00 | 0.00 | 46 | 994.6 |
| 20260901004509 | 80 | 181 | 0.0 | 4.3 | 0.00 | 0.00 | 0.00 | 45 | 994.6 |
| 20260901004022 | 81 | 181 | 0.0 | 4.3 | 0.00 | 0.00 | 0.00 | 45 | 994.6 |
| 20260901003533 | 81 | 181 | 0.0 | 4.3 | 0.00 | 0.00 | 0.00 | 43 | 994.7 |
| 20260901003002 | 82 | 197 | 1.7 | 4.3 | 0.00 | 0.00 | 0.00 | 43 | 994.6 |
| 20260901002509 | 82 | 187 | 0.0 | 3.5 | 0.00 | 0.00 | 0.00 | 43 | 994.7 |
| 20260901002015 | 83 | 188 | 0.0 | 3.5 | 0.00 | 0.00 | 0.00 | 43 | 994.7 |
| 20260901001553 | 83 | 360 | 1.7 | 3.5 | 0.00 | 0.00 | 0.00 | 39 | 994.7 |
| 20260901001046 | 83 | 355 | 1.7 | 3.5 | 0.00 | 0.00 | 0.00 | 39 | 994.7 |
| 20260901000552 | 83 | 65 | 0.9 | 3.5 | 0.00 | 0.00 | 0.00 | 40 | 994.8 |
| 20260901000032 | 83 | 150 | 1.7 | 3.5 | 0.00 | 0.00 | 0.00 | 40 | 994.7 |
| 20260831235537 | 83 | 19 | 0.0 | 3.5 | 0.00 | 0.00 | 0.00 | 42 | 994.7 |
| 20260831235043 | 83 | 19 | 0.9 | 3.5 | 0.00 | 0.00 | 0.00 | 41 | 994.8 |
| 20260831234520 | 83 | 360 | 1.7 | 2.6 | 0.00 | 0.00 | 0.00 | 41 | 994.7 |
| 20260831234028 | 84 | 117 | 0.9 | 3.5 | 0.00 | 0.00 | 0.00 | 40 | 994.8 |
| 20260831233531 | 83 | 176 | 0.9 | 3.5 | 0.00 | 0.00 | 0.00 | 40 | 994.7 |
| 20260831233058 | 83 | 304 | 0.0 | 3.5 | 0.00 | 0.00 | 0.00 | 40 | 994.8 |